Weather History for West Palm Beach, FL

Change the Weather History Date:

Saturday, March 17, 2012

  Actual Average Record
Temperature  
Mean Temperature 71 °F 70 °F  
Max Temperature 79 °F 79 °F 90 °F (2001)
Min Temperature 63 °F 62 °F 38 °F (1890)
Degree Days  
Heating Degree Days 0 1  
Month to date heating degree days 3 17  
Since 1 July heating degree days 112 222  
Cooling Degree Days 6 6  
Month to date cooling degree days 140 100  
Year to date cooling degree days 456 335  
Growing Degree Days 22 (Base 50)    
Moisture  
Dew Point 61 °F    
Average Humidity 71    
Maximum Humidity 87    
Minimum Humidity 54    
Precipitation  
Precipitation T in 0.16 in 2.21 in (2001)
Month to date precipitation 1.09 2.46  
Year to date precipitation 5.29 8.41  
Snow  
Snow 0.00 in - - ()
Month to date snowfall 0.0  
Since 1 July snowfall 0.0  
Snow Depth 0.00 in    
Sea Level Pressure  
Sea Level Pressure 30.18 in    
Wind  
Wind Speed 9 mph (ENE)    
Max Wind Speed 17 mph    
Max Gust Speed 25 mph    
Visibility 10 miles    
Events      
T = Trace of Precipitation, MM = Missing Value Source: NWS Daily Summary

Daily Weather History Graph

Daily Weather History Graph

Search for Another Location

Airport:

Trip Planner

Search our weather history database for the weather conditions in past years. The results will help you decide how hot, cold, wet, or windy it might be!

Date:

Astronomy

Mar. 17, 2012 Rise Set
Actual Time 7:27 AM EDT 7:30 PM EDT
Civil Twilight 7:03 AM EDT 7:53 PM EDT
Nautical Twilight 6:37 AM EDT 8:20 PM EDT
Astronomical Twilight 6:10 AM EDT 8:47 PM EDT
Moon 4:02 AM EDT (3/17) 3:15 PM EDT (3/17)
Length of Visible Light 12h 49m
Length of Day
12h 03m
Waning Crescent, 23% of the Moon is Illuminated
Mar 17
Waning Crescent
Mar 22
New
Mar 30
First Quarter
Apr 6
Full
Apr 13
Last Quarter

Hourly Weather History & Observations

Time (EDT) Temp. Dew Point Humidity Pressure Visibility Wind Dir Wind Speed Gust Speed Precip Events Conditions
12:53 AM 73.0 °F 62.1 °F 68% 30.20 in 10.0 mi East 12.7 mph - N/A   Partly Cloudy
1:53 AM 72.0 °F 62.1 °F 71% 30.18 in 10.0 mi East 10.4 mph - N/A   Scattered Clouds
2:53 AM 72.0 °F 61.0 °F 68% 30.16 in 10.0 mi East 10.4 mph - N/A   Scattered Clouds
3:53 AM 71.1 °F 61.0 °F 70% 30.14 in 10.0 mi East 8.1 mph - N/A   Scattered Clouds
4:53 AM 70.0 °F 61.0 °F 73% 30.14 in 10.0 mi East 6.9 mph - N/A   Scattered Clouds
5:53 AM 70.0 °F 61.0 °F 73% 30.15 in 10.0 mi East 6.9 mph - N/A   Scattered Clouds
6:53 AM 69.1 °F 60.1 °F 73% 30.17 in 10.0 mi NE 3.5 mph - N/A   Scattered Clouds
7:53 AM 64.0 °F 60.1 °F 87% 30.19 in 10.0 mi North 3.5 mph - N/A   Scattered Clouds
8:53 AM 72.0 °F 63.0 °F 73% 30.20 in 10.0 mi North 3.5 mph - N/A   Scattered Clouds
9:53 AM 75.0 °F 60.1 °F 60% 30.22 in 10.0 mi East 8.1 mph - N/A   Scattered Clouds
10:53 AM 77.0 °F 61.0 °F 58% 30.22 in 10.0 mi East 8.1 mph - N/A   Scattered Clouds
11:53 AM 78.1 °F 61.0 °F 56% 30.22 in 10.0 mi East 9.2 mph - N/A   Scattered Clouds
12:53 PM 79.0 °F 62.1 °F 56% 30.21 in 10.0 mi East 10.4 mph - N/A   Scattered Clouds
1:53 PM 77.0 °F 61.0 °F 58% 30.19 in 10.0 mi NNE 11.5 mph - N/A   Scattered Clouds
2:53 PM 78.1 °F 61.0 °F 56% 30.17 in 10.0 mi ENE 12.7 mph - N/A   Scattered Clouds
3:53 PM 77.0 °F 62.1 °F 60% 30.15 in 10.0 mi East 12.7 mph 20.7 mph N/A   Scattered Clouds
4:53 PM 77.0 °F 60.1 °F 56% 30.15 in 10.0 mi ENE 13.8 mph - N/A   Scattered Clouds
5:53 PM 75.9 °F 60.1 °F 58% 30.14 in 10.0 mi East 12.7 mph 19.6 mph N/A   Scattered Clouds
6:53 PM 75.0 °F 63.0 °F 66% 30.15 in 10.0 mi East 12.7 mph - N/A   Mostly Cloudy
7:53 PM 73.9 °F 62.1 °F 66% 30.16 in 10.0 mi ENE 10.4 mph - N/A   Scattered Clouds
8:53 PM 73.9 °F 61.0 °F 64% 30.17 in 10.0 mi ENE 11.5 mph - N/A   Partly Cloudy
9:53 PM 73.0 °F 61.0 °F 66% 30.19 in 10.0 mi East 10.4 mph - N/A   Scattered Clouds
10:53 PM 73.0 °F 61.0 °F 66% 30.19 in 10.0 mi East 9.2 mph - N/A   Scattered Clouds
11:53 PM 73.0 °F 62.1 °F 68% 30.20 in 10.0 mi East 6.9 mph - N/A   Scattered Clouds